{"data":{"norad_id":50500,"epoch":"2026-05-25T01:04:59.477376Z","epoch_age_seconds":65144,"freshness":"FRESH","line1":"1 50500U 21132AH  26145.04513284  .00000046  00000+0  83468-4 0  9996","line2":"2 50500  87.9162 340.0658 0001722  85.5254 274.6074 13.18688897218530","mean_motion":13.18688897,"eccentricity":0.0001722,"inclination_deg":87.9162,"raan_deg":340.0658,"arg_perigee_deg":85.5254,"mean_anomaly_deg":274.6074,"bstar":8.3468e-5,"rev_number":21853,"period_min":109.19937244304,"perigee_km":1188.4288560022,"apogee_km":1191.0352301006,"semimajor_km":7567.8690430514,"source":"CELESTRAK","updated_at":"2026-05-25T13:38:22.573514Z"}}